Terminal Aerodrome Forecast
Issued by NWS Buffalo, NY

Current Version | Previous Version | Text Only | Print | Product List | Glossary On
Versions: 1 2 3 4 5 6 7 8 9 10 11 12 13 14 15 16 17 18 19 20 21 22 23 24 25 26 27 28 29 30 31 32 33 34 35 36 37 38 39 40 41 42 43 44 45 46 47 48 49 50
000
FTUS41 KBUF 131732
TAFROC
TAF
KROC 131732Z 1318/1418 01008KT P6SM BKN200
     FM132000 02007KT P6SM BKN080
     FM132300 VRB04KT P6SM BKN070
     FM141000 25006KT P6SM BKN150
     FM141500 27011KT P6SM BKN035=

USA.gov is the U.S. government's official web portal to all federal, state and local government web resources and services.